| Temperature (°F) | Max | Average | Min |
|---|---|---|---|
| Max Temperature | 96 | 92.32 | 87 |
| Avg Temperature | 85.58 | 81.56 | 78.32 |
| Min Temperature | 79 | 75.32 | 73 |
| Dew Point (°F) | Max | Average | Min |
|---|---|---|---|
| Dew Point | 79 | 74.27 | 65 |
| Precipitation (in) | Max | Average | Min | Sum |
|---|---|---|---|---|
| Precipitation | 1.80 | 0.29 | 0.00 | 8.99 |
| Snowdepth | 0.00 | 0.00 | 0.00 | 0.00 |
| Wind (mph) | Max | Average | Min |
|---|---|---|---|
| Wind | 35 | 6.16 | 0 |
| Gust Wind | 68 | 1.78 | 0 |
| Sea Level Pressure (in) | Max | Average | Min |
|---|---|---|---|
| Sea Level Pressure | 30.12 | 29.9 | 29.68 |
| Date | Temperature (°F) | Dew Point (°F) | Humidity (%) | Wind Speed (mph) | Pressure (in) | Precipitation (in) | ||||||||||
|---|---|---|---|---|---|---|---|---|---|---|---|---|---|---|---|---|
| Max | Avg | Min | Max | Avg | Min | Max | Avg | Min | Max | Avg | Min | Max | Avg | Min | ||
| 8/31/2025 | 87 | 79.6 | 74 | 75 | 73.5 | 71 | 94 | 82.1 | 67 | 24 | 7.4 | 0 | 29.9 | 29.8 | 29.8 | 0.00 |
| 8/30/2025 | 92 | 81.3 | 74 | 75 | 72.9 | 69 | 97 | 77.2 | 50 | 13 | 5.9 | 0 | 29.9 | 29.8 | 29.8 | 0.00 |
| 8/29/2025 | 92 | 79.6 | 74 | 76 | 73.0 | 68 | 100 | 82.1 | 48 | 7 | 3.5 | 0 | 29.9 | 29.9 | 29.9 | 0.60 |
| 8/28/2025 | 92 | 80.2 | 74 | 76 | 74.2 | 70 | 100 | 83.3 | 50 | 15 | 5.4 | 0 | 30.0 | 29.9 | 29.9 | 1.03 |
| 8/27/2025 | 94 | 80.5 | 74 | 76 | 72.2 | 67 | 97 | 79.2 | 44 | 20 | 3.4 | 0 | 30.0 | 30.0 | 29.9 | 0.01 |
| 8/26/2025 | 88 | 79.1 | 74 | 76 | 74.5 | 73 | 97 | 86.1 | 69 | 12 | 5.5 | 0 | 30.0 | 30.0 | 29.9 | 0.00 |
| 8/25/2025 | 87 | 78.7 | 75 | 76 | 74.4 | 73 | 97 | 87.2 | 70 | 17 | 7.7 | 0 | 30.0 | 29.9 | 29.9 | 0.01 |
| 8/24/2025 | 88 | 78.8 | 74 | 76 | 74.2 | 72 | 97 | 86.2 | 67 | 15 | 7.8 | 3 | 29.9 | 29.8 | 29.8 | 0.61 |
| 8/23/2025 | 87 | 78.3 | 73 | 77 | 74.4 | 71 | 97 | 88.0 | 72 | 33 | 8.2 | 0 | 29.9 | 29.9 | 29.8 | 0.20 |
| 8/22/2025 | 89 | 79.0 | 75 | 77 | 74.6 | 72 | 97 | 87.1 | 63 | 15 | 5.6 | 0 | 29.9 | 29.9 | 29.8 | 1.15 |
| 8/21/2025 | 94 | 81.2 | 74 | 76 | 72.7 | 69 | 94 | 76.8 | 47 | 35 | 8.6 | 0 | 29.8 | 29.8 | 29.7 | 0.39 |
| 8/20/2025 | 92 | 82.1 | 76 | 77 | 74.9 | 72 | 93 | 79.7 | 52 | 18 | 8.4 | 3 | 29.8 | 29.7 | 29.7 | 0.14 |
| 8/19/2025 | 93 | 82.6 | 78 | 77 | 75.2 | 71 | 96 | 79.5 | 50 | 22 | 7.4 | 0 | 29.9 | 29.8 | 29.8 | 0.68 |
| 8/18/2025 | 95 | 81.9 | 73 | 78 | 74.3 | 65 | 96 | 79.1 | 54 | 17 | 5.5 | 0 | 29.9 | 29.8 | 29.8 | 0.52 |
| 8/17/2025 | 93 | 82.8 | 77 | 78 | 75.6 | 73 | 93 | 79.6 | 54 | 10 | 3.9 | 0 | 29.9 | 29.8 | 29.8 | 0.00 |
| 8/16/2025 | 95 | 84.9 | 78 | 77 | 74.0 | 70 | 90 | 71.5 | 44 | 10 | 5.0 | 0 | 30.0 | 29.9 | 29.9 | 0.14 |
| 8/15/2025 | 95 | 83.9 | 77 | 78 | 75.9 | 73 | 91 | 77.9 | 52 | 25 | 4.7 | 0 | 30.0 | 30.0 | 29.9 | 0.25 |
| 8/14/2025 | 96 | 85.4 | 79 | 78 | 75.5 | 73 | 90 | 73.3 | 49 | 16 | 3.2 | 0 | 30.0 | 29.9 | 29.9 | 0.00 |
| 8/13/2025 | 95 | 85.6 | 77 | 78 | 74.7 | 72 | 94 | 71.3 | 49 | 12 | 5.8 | 0 | 30.0 | 29.9 | 29.9 | 0.04 |
| 8/12/2025 | 94 | 83.5 | 77 | 78 | 76.5 | 74 | 96 | 80.4 | 57 | 12 | 7.2 | 3 | 30.0 | 30.0 | 29.9 | 0.00 |
| 8/11/2025 | 94 | 82.3 | 74 | 77 | 74.2 | 72 | 97 | 78.3 | 52 | 26 | 8.9 | 3 | 30.0 | 29.9 | 29.9 | 0.01 |
| 8/10/2025 | 91 | 79.0 | 74 | 75 | 73.9 | 73 | 100 | 85.0 | 59 | 15 | 7.2 | 0 | 30.0 | 29.9 | 29.9 | 0.00 |
| 8/9/2025 | 89 | 79.7 | 75 | 76 | 73.7 | 71 | 94 | 82.5 | 65 | 16 | 7.1 | 3 | 29.9 | 29.9 | 29.8 | 0.15 |
| 8/8/2025 | 91 | 80.3 | 75 | 77 | 73.9 | 72 | 96 | 81.6 | 55 | 22 | 6.4 | 0 | 29.9 | 29.9 | 29.8 | 0.03 |
| 8/7/2025 | 92 | 83.0 | 77 | 77 | 75.4 | 72 | 96 | 78.7 | 53 | 16 | 6.7 | 0 | 30.0 | 30.0 | 29.9 | 0.14 |
| 8/6/2025 | 95 | 80.9 | 76 | 75 | 73.6 | 71 | 97 | 80.0 | 49 | 22 | 5.5 | 0 | 30.1 | 30.1 | 30.0 | 0.00 |
| 8/5/2025 | 94 | 81.3 | 75 | 75 | 73.4 | 72 | 97 | 79.2 | 49 | 14 | 5.8 | 0 | 30.1 | 30.0 | 30.0 | 0.65 |
| 8/4/2025 | 96 | 82.8 | 73 | 76 | 74.0 | 70 | 96 | 76.3 | 44 | 29 | 8.0 | 0 | 30.0 | 29.9 | 29.9 | 0.00 |
| 8/3/2025 | 95 | 84.9 | 77 | 77 | 73.7 | 70 | 100 | 71.7 | 44 | 12 | 5.5 | 0 | 29.9 | 29.9 | 29.8 | 0.12 |
| 8/2/2025 | 94 | 82.4 | 76 | 77 | 74.3 | 69 | 97 | 78.7 | 47 | 12 | 5.1 | 0 | 30.0 | 30.0 | 29.9 | 0.32 |
| 8/1/2025 | 93 | 82.8 | 76 | 79 | 75.8 | 72 | 94 | 80.7 | 50 | 16 | 4.6 | 0 | 30.0 | 30.0 | 30.0 | 1.80 |